Location: Jefferson
(30.9666°N, 81.7901°W)
Time: 20:16:55
(UTC+00:00)

ARIANE 6 FM1 Upper Stage - Pass Details

Date: 24 September 2024
Orbit: 563 x 595 km, 62.0° (Epoch: 13 October)

Event Time Altitude Azimuth Distance (km) Brightness Sun altitude
Exits shadow 09:28:44 20° 168° (SSE) 1,399 4.6 -23.8°
Drops below altitude 10° 09:30:06 10° 163° (SSE) 1,918 5.4 -23.5°
Sets 09:32:22 0° 159° (SSE) 2,813 6.3 -23.0°
